T7ZEM SCVD-SCCI

Flight info

Callsign T7ZEM
Flight time 3h 47m
Altitude 29000
Route ISUDO1M ISUDO UV200 MON UT102 BAL UL670 EGOSA EGOSA2E
Aircraft TBM8/L-SDFGRWY/S

Departure

Time 2026-04-26 06:12
Airport Pichoy Airport (SCVD)

Arrival

Time 2026-04-26 09:59
Airport President Carlos Ibáñez International Airport (SCCI)
Time Latitude Longitude Altitude Speed Heading
2026-04-26 06:03 -39.65175 -73.08288 56 ft 0 kts 180°
2026-04-26 06:09 -39.65189 -73.08290 53 ft 7 kts 204°
2026-04-26 06:09 -39.65169 -73.08311 55 ft 9 kts 35°
2026-04-26 06:09 -39.65110 -73.08355 59 ft 13 kts 294°
2026-04-26 06:10 -39.65142 -73.08464 60 ft 15 kts 208°
2026-04-26 06:10 -39.65249 -73.08536 56 ft 20 kts 211°
2026-04-26 06:10 -39.65388 -73.08588 61 ft 22 kts 189°
2026-04-26 06:10 -39.65546 -73.08610 56 ft 25 kts 171°
2026-04-26 06:11 -39.65732 -73.08598 59 ft 28 kts 178°
2026-04-26 06:11 -39.65880 -73.08557 54 ft 17 kts 172°
2026-04-26 06:11 -39.65828 -73.08599 59 ft 16 kts
2026-04-26 06:11 -39.65652 -73.08605 59 ft 47 kts 358°
2026-04-26 06:12 -39.65129 -73.08622 60 ft 101 kts 358°
2026-04-26 06:12 -39.64326 -73.08682 199 ft 127 kts 354°
2026-04-26 06:12 -39.63373 -73.08725 503 ft 141 kts 356°
2026-04-26 06:12 -39.62417 -73.08462 964 ft 149 kts 35°
2026-04-26 06:13 -39.61902 -73.07318 1417 ft 149 kts 83°
2026-04-26 06:13 -39.62083 -73.06050 1879 ft 142 kts 127°
2026-04-26 06:13 -39.62793 -73.05291 2385 ft 132 kts 164°
2026-04-26 06:13 -39.63681 -73.05243 2885 ft 128 kts 190°
2026-04-26 06:14 -39.64563 -73.05402 3386 ft 128 kts 187°
2026-04-26 06:14 -39.65447 -73.05547 3867 ft 128 kts 188°
2026-04-26 06:14 -39.66329 -73.05694 4359 ft 128 kts 188°
2026-04-26 06:14 -39.67209 -73.05843 4849 ft 127 kts 188°
2026-04-26 06:15 -39.68085 -73.05988 5328 ft 127 kts 189°
2026-04-26 06:15 -39.68958 -73.06134 5787 ft 127 kts 190°
2026-04-26 06:15 -39.69822 -73.06278 6241 ft 127 kts 191°
2026-04-26 06:15 -39.70695 -73.06422 6732 ft 126 kts 192°
2026-04-26 06:16 -39.71560 -73.06564 7192 ft 125 kts 192°
2026-04-26 06:16 -39.72419 -73.06707 7666 ft 123 kts 192°
2026-04-26 06:16 -39.73266 -73.06848 8148 ft 122 kts 192°
2026-04-26 06:16 -39.74098 -73.06987 8620 ft 120 kts 193°
2026-04-26 06:17 -39.74934 -73.07127 9076 ft 121 kts 193°
2026-04-26 06:17 -39.75763 -73.07265 9554 ft 119 kts 193°
2026-04-26 06:17 -39.76583 -73.07400 10012 ft 119 kts 193°
2026-04-26 06:17 -39.77399 -73.07535 10442 ft 118 kts 193°
2026-04-26 06:18 -39.78214 -73.07672 10858 ft 118 kts 194°
2026-04-26 06:18 -39.79019 -73.07806 11290 ft 118 kts 194°
2026-04-26 06:18 -39.79838 -73.07943 11679 ft 119 kts 194°
2026-04-26 06:18 -39.80660 -73.08080 12120 ft 119 kts 194°
2026-04-26 06:19 -39.81486 -73.08218 12490 ft 120 kts 194°
2026-04-26 06:19 -39.82313 -73.08356 12913 ft 120 kts 195°
2026-04-26 06:19 -39.83137 -73.08492 13337 ft 119 kts 195°
2026-04-26 06:19 -39.83966 -73.08605 13755 ft 122 kts 189°
2026-04-26 06:20 -39.84811 -73.08586 14130 ft 123 kts 190°
2026-04-26 06:20 -39.85670 -73.08602 14506 ft 124 kts 190°
2026-04-26 06:20 -39.86532 -73.08611 14889 ft 124 kts 190°
2026-04-26 06:20 -39.87404 -73.08615 15294 ft 125 kts 190°
2026-04-26 06:21 -39.88277 -73.08618 15676 ft 126 kts 190°
2026-04-26 06:21 -39.89158 -73.08623 16004 ft 127 kts 190°
2026-04-26 06:21 -39.90043 -73.08626 16401 ft 127 kts 190°
2026-04-26 06:21 -39.90933 -73.08628 16767 ft 128 kts 190°
2026-04-26 06:22 -39.91827 -73.08631 17135 ft 129 kts 191°
2026-04-26 06:22 -39.92712 -73.08637 17504 ft 129 kts 191°
2026-04-26 06:22 -39.93615 -73.08641 17874 ft 130 kts 191°
2026-04-26 06:22 -39.94524 -73.08644 18249 ft 131 kts 191°
2026-04-26 06:23 -39.95438 -73.08647 18587 ft 132 kts 191°
2026-04-26 06:23 -39.96357 -73.08649 18896 ft 132 kts 191°
2026-04-26 06:23 -39.97281 -73.08652 19197 ft 133 kts 191°
2026-04-26 06:23 -39.98209 -73.08656 19490 ft 134 kts 191°
2026-04-26 06:24 -39.99131 -73.08659 19735 ft 135 kts 190°
2026-04-26 06:24 -40.00067 -73.08662 20031 ft 135 kts 190°
2026-04-26 06:24 -40.01009 -73.08665 20344 ft 136 kts 190°
2026-04-26 06:24 -40.01956 -73.08668 20673 ft 136 kts 190°
2026-04-26 06:25 -40.02908 -73.08672 20995 ft 137 kts 190°
2026-04-26 06:25 -40.03868 -73.08674 21251 ft 139 kts 190°
2026-04-26 06:25 -40.04834 -73.08681 21558 ft 139 kts 190°
2026-04-26 06:25 -40.05800 -73.08684 21864 ft 139 kts 190°
2026-04-26 06:26 -40.06774 -73.08688 22118 ft 141 kts 190°
2026-04-26 06:26 -40.07755 -73.08691 22424 ft 141 kts 189°
2026-04-26 06:26 -40.08727 -73.08693 22677 ft 142 kts 189°
2026-04-26 06:26 -40.09716 -73.08703 22944 ft 142 kts 190°
2026-04-26 06:27 -40.10706 -73.08708 23253 ft 142 kts 188°
2026-04-26 06:27 -40.11697 -73.08702 23528 ft 143 kts 189°
2026-04-26 06:27 -40.12690 -73.08706 23813 ft 143 kts 189°
2026-04-26 06:27 -40.13692 -73.08712 24065 ft 144 kts 189°
2026-04-26 06:28 -40.14697 -73.08715 24307 ft 145 kts 189°
2026-04-26 06:28 -40.15704 -73.08719 24540 ft 145 kts 189°
2026-04-26 06:28 -40.16712 -73.08723 24784 ft 145 kts 189°
2026-04-26 06:28 -40.17725 -73.08727 25020 ft 146 kts 189°
2026-04-26 06:29 -40.18726 -73.08731 25244 ft 146 kts 189°
2026-04-26 06:29 -40.19743 -73.08735 25474 ft 146 kts 189°
2026-04-26 06:29 -40.20762 -73.08739 25700 ft 147 kts 189°
2026-04-26 06:29 -40.21783 -73.08742 25925 ft 147 kts 189°
2026-04-26 06:30 -40.22807 -73.08747 26156 ft 147 kts 189°
2026-04-26 06:30 -40.23835 -73.08750 26389 ft 148 kts 188°
2026-04-26 06:30 -40.24865 -73.08754 26614 ft 148 kts 188°
2026-04-26 06:30 -40.25898 -73.08757 26835 ft 149 kts 188°
2026-04-26 06:31 -40.26932 -73.08763 27056 ft 149 kts 189°
2026-04-26 06:31 -40.27958 -73.08770 27271 ft 150 kts 188°
2026-04-26 06:31 -40.29001 -73.08777 27484 ft 150 kts 188°
2026-04-26 06:31 -40.30047 -73.08783 27700 ft 151 kts 188°
2026-04-26 06:32 -40.31098 -73.08790 27936 ft 151 kts 188°
2026-04-26 06:32 -40.32146 -73.08797 28175 ft 150 kts 188°
2026-04-26 06:32 -40.33193 -73.08803 28391 ft 151 kts 188°
2026-04-26 06:32 -40.34245 -73.08810 28597 ft 151 kts 188°
2026-04-26 06:33 -40.35300 -73.08817 28803 ft 152 kts 188°
2026-04-26 06:33 -40.36347 -73.08824 28992 ft 153 kts 188°
2026-04-26 06:33 -40.37410 -73.08831 29199 ft 153 kts 188°
2026-04-26 06:33 -40.38487 -73.08840 29282 ft 159 kts 188°
2026-04-26 06:34 -40.39622 -73.08853 29291 ft 167 kts 187°
2026-04-26 06:34 -40.40816 -73.08861 29297 ft 175 kts 187°
2026-04-26 06:34 -40.42062 -73.08869 29296 ft 183 kts 187°
2026-04-26 06:34 -40.43361 -73.08876 29295 ft 190 kts 187°
2026-04-26 06:35 -40.44708 -73.08883 29299 ft 196 kts 187°
2026-04-26 06:35 -40.46087 -73.08891 29300 ft 201 kts 186°
2026-04-26 06:35 -40.47503 -73.08900 29299 ft 206 kts 186°
2026-04-26 06:35 -40.48929 -73.08909 29300 ft 210 kts 186°
2026-04-26 06:36 -40.50400 -73.08917 29301 ft 213 kts 186°
2026-04-26 06:36 -40.51893 -73.08927 29301 ft 216 kts 186°
2026-04-26 06:36 -40.53409 -73.08937 29302 ft 219 kts 186°
2026-04-26 06:36 -40.54941 -73.08946 29301 ft 221 kts 186°
2026-04-26 06:37 -40.56485 -73.08955 29300 ft 223 kts 186°
2026-04-26 06:37 -40.58040 -73.08965 29301 ft 224 kts 186°
2026-04-26 06:37 -40.59604 -73.08976 29302 ft 225 kts 186°
2026-04-26 06:37 -40.61176 -73.08985 29300 ft 226 kts 186°
2026-04-26 06:38 -40.62749 -73.08995 29301 ft 227 kts 186°
2026-04-26 06:38 -40.64310 -73.09005 29302 ft 228 kts 186°
2026-04-26 06:38 -40.65895 -73.09015 29299 ft 228 kts 186°
2026-04-26 06:38 -40.67486 -73.09025 29299 ft 229 kts 186°
2026-04-26 06:39 -40.69079 -73.09036 29301 ft 229 kts 186°
2026-04-26 06:39 -40.70676 -73.09045 29300 ft 230 kts 186°
2026-04-26 06:39 -40.72275 -73.09056 29300 ft 230 kts 186°
2026-04-26 06:39 -40.73877 -73.09066 29296 ft 231 kts 186°
2026-04-26 06:40 -40.75482 -73.09077 29294 ft 231 kts 186°
2026-04-26 06:40 -40.77066 -73.09087 29294 ft 231 kts 186°
2026-04-26 06:40 -40.78671 -73.09097 29286 ft 231 kts 186°
2026-04-26 06:40 -40.80276 -73.09107 29287 ft 231 kts 186°
2026-04-26 06:41 -40.81882 -73.09117 29289 ft 231 kts 186°
2026-04-26 06:41 -40.83488 -73.09128 29289 ft 231 kts 186°
2026-04-26 06:41 -40.85094 -73.09138 29285 ft 231 kts 186°
2026-04-26 06:41 -40.86696 -73.09149 29289 ft 231 kts 186°
2026-04-26 06:42 -40.88302 -73.09159 29285 ft 231 kts 186°
2026-04-26 06:42 -40.89908 -73.09169 29285 ft 231 kts 186°
2026-04-26 06:42 -40.91493 -73.09179 29285 ft 231 kts 186°
2026-04-26 06:42 -40.93099 -73.09190 29285 ft 231 kts 186°
2026-04-26 06:43 -40.94706 -73.09193 29298 ft 232 kts 185°
2026-04-26 06:43 -40.96318 -73.09189 29292 ft 231 kts 185°
2026-04-26 06:43 -40.97926 -73.09186 29292 ft 231 kts 185°
2026-04-26 06:43 -40.99532 -73.09187 29292 ft 231 kts 185°
2026-04-26 06:44 -41.01136 -73.09188 29292 ft 230 kts 185°
2026-04-26 06:44 -41.02739 -73.09188 29291 ft 230 kts 185°
2026-04-26 06:44 -41.04319 -73.09188 29290 ft 230 kts 185°
2026-04-26 06:44 -41.05916 -73.09187 29290 ft 230 kts 185°
2026-04-26 06:45 -41.07516 -73.09188 29287 ft 230 kts 185°
2026-04-26 06:45 -41.09115 -73.09188 29287 ft 230 kts 185°
2026-04-26 06:45 -41.10716 -73.09188 29287 ft 230 kts 185°
2026-04-26 06:45 -41.12310 -73.09187 29287 ft 230 kts 185°
2026-04-26 06:46 -41.13907 -73.09187 29286 ft 229 kts 185°
2026-04-26 06:46 -41.15504 -73.09188 29290 ft 230 kts 185°
2026-04-26 06:46 -41.17101 -73.09187 29292 ft 229 kts 185°
2026-04-26 06:46 -41.18697 -73.09187 29293 ft 229 kts 185°
2026-04-26 06:47 -41.20272 -73.09188 29294 ft 229 kts 185°
2026-04-26 06:47 -41.21868 -73.09187 29294 ft 229 kts 185°
2026-04-26 06:47 -41.23464 -73.09187 29294 ft 229 kts 185°
2026-04-26 06:47 -41.24539 -73.09188 29295 ft 229 kts 185°
2026-04-26 06:48 -41.26654 -73.09188 29294 ft 229 kts 185°
2026-04-26 06:48 -41.28245 -73.09187 29293 ft 229 kts 185°
2026-04-26 06:48 -41.29838 -73.09188 29295 ft 229 kts 185°
2026-04-26 06:48 -41.31433 -73.09187 29294 ft 229 kts 185°
2026-04-26 06:49 -41.33028 -73.09188 29294 ft 229 kts 185°
2026-04-26 06:49 -41.34601 -73.09187 29295 ft 229 kts 185°
2026-04-26 06:49 -41.36198 -73.09187 29302 ft 230 kts 185°
2026-04-26 06:49 -41.37797 -73.09188 29298 ft 230 kts 185°
2026-04-26 06:50 -41.39393 -73.09187 29298 ft 229 kts 185°
2026-04-26 06:50 -41.40988 -73.09187 29298 ft 229 kts 185°
2026-04-26 06:50 -41.42579 -73.09185 29298 ft 229 kts 184°
2026-04-26 06:50 -41.43635 -73.09019 29303 ft 234 kts 176°
2026-04-26 06:51 -41.45226 -73.08544 29300 ft 234 kts 175°
2026-04-26 06:51 -41.48924 -73.07494 29289 ft 233 kts 176°
2026-04-26 06:51 -41.50509 -73.07049 29288 ft 233 kts 176°
2026-04-26 06:52 -41.52096 -73.06601 29288 ft 233 kts 176°
2026-04-26 06:52 -41.53683 -73.06153 29288 ft 233 kts 176°
2026-04-26 06:52 -41.54735 -73.05856 29287 ft 233 kts 176°
2026-04-26 06:52 -41.56322 -73.05407 29289 ft 233 kts 176°
2026-04-26 06:53 -41.57910 -73.04958 29287 ft 233 kts 176°
2026-04-26 06:53 -41.59496 -73.04509 29290 ft 233 kts 176°
2026-04-26 06:53 -41.61080 -73.04062 29290 ft 233 kts 176°
2026-04-26 06:53 -41.63176 -73.03468 29290 ft 232 kts 176°
2026-04-26 06:54 -41.64246 -73.03165 29291 ft 232 kts 176°
2026-04-26 06:54 -41.65806 -73.02723 29291 ft 232 kts 176°
2026-04-26 06:54 -41.67405 -73.02269 29294 ft 232 kts 176°
2026-04-26 06:54 -41.68964 -73.01827 29293 ft 232 kts 176°
2026-04-26 06:55 -41.70545 -73.01378 29287 ft 232 kts 176°
2026-04-26 06:55 -41.72125 -73.00929 29287 ft 232 kts 176°
2026-04-26 06:55 -41.73705 -73.00481 29287 ft 232 kts 176°
2026-04-26 06:55 -41.75285 -73.00032 29300 ft 232 kts 176°
2026-04-26 06:56 -41.76866 -72.99582 29298 ft 232 kts 175°
2026-04-26 06:56 -41.78446 -72.99132 29298 ft 232 kts 175°
2026-04-26 06:56 -41.80005 -72.98688 29298 ft 232 kts 175°
2026-04-26 06:56 -41.81583 -72.98239 29301 ft 232 kts 175°
2026-04-26 06:57 -41.83157 -72.97790 29292 ft 232 kts 175°
2026-04-26 06:57 -41.84737 -72.97340 29292 ft 232 kts 175°
2026-04-26 06:57 -41.86310 -72.96891 29291 ft 232 kts 175°
2026-04-26 06:57 -41.87886 -72.96442 29291 ft 232 kts 175°
2026-04-26 06:58 -41.89462 -72.95991 29296 ft 231 kts 175°
2026-04-26 06:58 -41.91037 -72.95541 29299 ft 231 kts 175°
2026-04-26 06:58 -41.92612 -72.95091 29335 ft 231 kts 175°
2026-04-26 06:58 -41.94175 -72.94647 29291 ft 233 kts 175°
2026-04-26 06:59 -41.95755 -72.94193 29296 ft 232 kts 175°
2026-04-26 06:59 -41.97330 -72.93741 29296 ft 231 kts 175°
2026-04-26 06:59 -41.98901 -72.93291 29296 ft 230 kts 175°
2026-04-26 06:59 -42.00467 -72.92842 29296 ft 230 kts 176°
2026-04-26 07:00 -42.02031 -72.92394 29293 ft 230 kts 176°
2026-04-26 07:00 -42.03593 -72.91946 29293 ft 229 kts 176°
2026-04-26 07:00 -42.05153 -72.91498 29292 ft 229 kts 176°
2026-04-26 07:00 -42.06707 -72.91052 29292 ft 229 kts 176°
2026-04-26 07:01 -42.08242 -72.90611 29293 ft 229 kts 176°
2026-04-26 07:01 -42.09797 -72.90164 29292 ft 228 kts 176°
2026-04-26 07:01 -42.11351 -72.89717 29292 ft 228 kts 176°
2026-04-26 07:01 -42.12905 -72.89270 29291 ft 228 kts 176°
2026-04-26 07:02 -42.14458 -72.88823 29292 ft 228 kts 175°
2026-04-26 07:02 -42.16010 -72.88376 29292 ft 228 kts 175°
2026-04-26 07:02 -42.17563 -72.87929 29292 ft 228 kts 175°
2026-04-26 07:02 -42.19094 -72.87487 29292 ft 228 kts 175°
2026-04-26 07:03 -42.20646 -72.87039 29291 ft 228 kts 175°
2026-04-26 07:03 -42.22198 -72.86591 29291 ft 228 kts 175°
2026-04-26 07:03 -42.23750 -72.86143 29291 ft 228 kts 175°
2026-04-26 07:03 -42.25302 -72.85694 29291 ft 228 kts 175°
2026-04-26 07:04 -42.26850 -72.85247 29291 ft 228 kts 175°
2026-04-26 07:04 -42.28402 -72.84799 29291 ft 228 kts 175°
2026-04-26 07:04 -42.29954 -72.84349 29291 ft 228 kts 175°
2026-04-26 07:04 -42.31506 -72.83900 29291 ft 228 kts 175°
2026-04-26 07:05 -42.33057 -72.83451 29308 ft 228 kts 175°
2026-04-26 07:05 -42.34591 -72.83007 29290 ft 228 kts 175°
2026-04-26 07:05 -42.36144 -72.82557 29290 ft 228 kts 175°
2026-04-26 07:05 -42.37696 -72.82106 29290 ft 228 kts 175°
2026-04-26 07:06 -42.39246 -72.81656 29289 ft 228 kts 175°
2026-04-26 07:06 -42.40796 -72.81206 29289 ft 228 kts 175°
2026-04-26 07:06 -42.42344 -72.80745 29284 ft 228 kts 175°
2026-04-26 07:06 -42.43891 -72.80274 29280 ft 228 kts 175°
2026-04-26 07:07 -42.45438 -72.79807 29279 ft 228 kts 175°
2026-04-26 07:07 -42.46984 -72.79342 29278 ft 228 kts 175°
2026-04-26 07:07 -42.48506 -72.78883 29277 ft 228 kts 175°
2026-04-26 07:07 -42.50051 -72.78417 29276 ft 227 kts 175°
2026-04-26 07:08 -42.51596 -72.77951 29273 ft 227 kts 175°
2026-04-26 07:08 -42.53138 -72.77485 29283 ft 227 kts 175°
2026-04-26 07:08 -42.54680 -72.77019 29284 ft 227 kts 175°
2026-04-26 07:08 -42.56228 -72.76551 29278 ft 228 kts 175°
2026-04-26 07:09 -42.57780 -72.76084 29277 ft 229 kts 175°
2026-04-26 07:09 -42.59339 -72.75618 29278 ft 230 kts 175°
2026-04-26 07:09 -42.60884 -72.75145 29283 ft 231 kts 174°
2026-04-26 07:09 -42.62451 -72.74664 29275 ft 231 kts 175°
2026-04-26 07:10 -42.67133 -72.73250 29278 ft 229 kts 175°
2026-04-26 07:11 -42.70248 -72.72315 29273 ft 231 kts 175°
2026-04-26 07:11 -42.71819 -72.71826 29270 ft 231 kts 174°
2026-04-26 07:11 -42.73387 -72.71343 29272 ft 231 kts 175°
2026-04-26 07:11 -42.74955 -72.70871 29269 ft 231 kts 175°
2026-04-26 07:12 -42.76524 -72.70398 29271 ft 231 kts 174°
2026-04-26 07:12 -42.78075 -72.69922 29269 ft 232 kts 175°
2026-04-26 07:12 -42.79654 -72.69453 29267 ft 232 kts 175°
2026-04-26 07:12 -42.81229 -72.68963 29267 ft 232 kts 174°
2026-04-26 07:13 -42.82798 -72.68479 29267 ft 231 kts 175°
2026-04-26 07:13 -42.84362 -72.68005 29274 ft 230 kts 175°
2026-04-26 07:13 -42.85930 -72.67530 29267 ft 231 kts 175°
2026-04-26 07:13 -42.87501 -72.67049 29264 ft 231 kts 175°
2026-04-26 07:14 -42.89066 -72.66568 29273 ft 230 kts 174°
2026-04-26 07:14 -42.90607 -72.66097 29289 ft 231 kts 175°
2026-04-26 07:14 -42.92177 -72.65628 29284 ft 231 kts 175°
2026-04-26 07:14 -42.93743 -72.65148 29288 ft 231 kts 174°
2026-04-26 07:15 -42.95309 -72.64662 29289 ft 231 kts 175°
2026-04-26 07:15 -42.96878 -72.64179 29288 ft 231 kts 174°
2026-04-26 07:15 -42.98443 -72.63697 29285 ft 230 kts 174°
2026-04-26 07:15 -43.00005 -72.63222 29292 ft 231 kts 174°
2026-04-26 07:16 -43.01575 -72.62736 29288 ft 232 kts 174°
2026-04-26 07:16 -43.03127 -72.62252 29293 ft 233 kts 175°
2026-04-26 07:16 -43.04707 -72.61786 29292 ft 232 kts 175°
2026-04-26 07:16 -43.06282 -72.61306 29286 ft 231 kts 174°
2026-04-26 07:17 -43.07856 -72.60812 29287 ft 233 kts 174°
2026-04-26 07:17 -43.09428 -72.60312 29294 ft 232 kts 174°
2026-04-26 07:17 -43.11012 -72.59844 29289 ft 231 kts 174°
2026-04-26 07:17 -43.12574 -72.59391 29297 ft 230 kts 174°
2026-04-26 07:18 -43.14134 -72.58874 29298 ft 230 kts 174°
2026-04-26 07:18 -43.15678 -72.58391 29293 ft 226 kts 175°
2026-04-26 07:18 -43.17209 -72.57945 29302 ft 225 kts 175°
2026-04-26 07:18 -43.18723 -72.57469 29298 ft 227 kts 174°
2026-04-26 07:19 -43.20261 -72.56986 29289 ft 226 kts 174°
2026-04-26 07:19 -43.21788 -72.56519 29294 ft 225 kts 175°
2026-04-26 07:19 -43.23314 -72.56039 29285 ft 224 kts 174°
2026-04-26 07:19 -43.24830 -72.55562 29293 ft 223 kts 174°
2026-04-26 07:20 -43.26338 -72.55098 29300 ft 222 kts 174°
2026-04-26 07:20 -43.27845 -72.54636 29308 ft 222 kts 175°
2026-04-26 07:20 -43.29367 -72.54187 29288 ft 225 kts 175°
2026-04-26 07:20 -43.30870 -72.53708 29296 ft 226 kts 174°
2026-04-26 07:21 -43.32409 -72.53216 29286 ft 228 kts 174°
2026-04-26 07:21 -43.33954 -72.52759 29289 ft 227 kts 175°
2026-04-26 07:21 -43.35498 -72.52289 29295 ft 227 kts 174°
2026-04-26 07:21 -43.37044 -72.51800 29297 ft 229 kts 175°
2026-04-26 07:22 -43.38605 -72.51321 29281 ft 230 kts 174°
2026-04-26 07:22 -43.40146 -72.50806 29301 ft 226 kts 174°
2026-04-26 07:22 -43.41686 -72.50350 29286 ft 226 kts 175°
2026-04-26 07:22 -43.43211 -72.49897 29290 ft 228 kts 174°
2026-04-26 07:23 -43.44746 -72.49378 29307 ft 226 kts 174°
2026-04-26 07:23 -43.46289 -72.48901 29290 ft 227 kts 175°
2026-04-26 07:23 -43.47830 -72.48438 29300 ft 227 kts 174°
2026-04-26 07:23 -43.49370 -72.47949 29287 ft 227 kts 175°
2026-04-26 07:24 -43.50903 -72.47490 29283 ft 225 kts 175°
2026-04-26 07:24 -43.52426 -72.47026 29291 ft 225 kts 174°
2026-04-26 07:24 -43.53950 -72.46526 29290 ft 224 kts 174°
2026-04-26 07:24 -43.55465 -72.46048 29306 ft 224 kts 175°
2026-04-26 07:25 -43.56975 -72.45582 29305 ft 226 kts 174°
2026-04-26 07:25 -43.58510 -72.45080 29308 ft 227 kts 174°
2026-04-26 07:25 -43.60052 -72.44611 29305 ft 227 kts 175°
2026-04-26 07:25 -43.61601 -72.44144 29302 ft 229 kts 174°
2026-04-26 07:26 -43.63155 -72.43648 29304 ft 230 kts 174°
2026-04-26 07:26 -43.64715 -72.43146 29297 ft 231 kts 174°
2026-04-26 07:26 -43.66274 -72.42661 29290 ft 228 kts 174°
2026-04-26 07:26 -43.67815 -72.42177 29300 ft 227 kts 174°
2026-04-26 07:27 -43.69349 -72.41686 29296 ft 226 kts 174°
2026-04-26 07:27 -43.70879 -72.41217 29298 ft 225 kts 175°
2026-04-26 07:27 -43.72388 -72.40740 29297 ft 226 kts 174°
2026-04-26 07:27 -43.73912 -72.40259 29291 ft 225 kts 174°
2026-04-26 07:28 -43.75438 -72.39785 29295 ft 224 kts 174°
2026-04-26 07:28 -43.76955 -72.39307 29302 ft 225 kts 174°
2026-04-26 07:28 -43.78490 -72.38813 29303 ft 226 kts 174°
2026-04-26 07:28 -43.80015 -72.38325 29299 ft 225 kts 174°
2026-04-26 07:29 -43.81540 -72.37859 29327 ft 224 kts 174°
2026-04-26 07:29 -43.83042 -72.37385 29314 ft 224 kts 174°
2026-04-26 07:29 -43.84563 -72.36908 29315 ft 224 kts 174°
2026-04-26 07:29 -43.86083 -72.36421 29319 ft 224 kts 174°
2026-04-26 07:30 -43.87608 -72.35945 29319 ft 225 kts 174°
2026-04-26 07:30 -43.89138 -72.35456 29313 ft 226 kts 174°
2026-04-26 07:30 -43.90665 -72.34968 29302 ft 225 kts 174°
2026-04-26 07:30 -43.92191 -72.34490 29306 ft 225 kts 174°
2026-04-26 07:31 -43.93718 -72.34011 29322 ft 227 kts 174°
2026-04-26 07:31 -43.95258 -72.33516 29311 ft 227 kts 174°
2026-04-26 07:31 -43.96774 -72.33033 29318 ft 227 kts 174°
2026-04-26 07:31 -43.98320 -72.32545 29313 ft 228 kts 174°
2026-04-26 07:32 -43.99862 -72.32054 29313 ft 227 kts 174°
2026-04-26 07:32 -44.01404 -72.31565 29320 ft 227 kts 174°
2026-04-26 07:32 -44.02939 -72.31076 29321 ft 226 kts 174°
2026-04-26 07:32 -44.04467 -72.30590 29321 ft 225 kts 174°
2026-04-26 07:33 -44.05991 -72.30105 29320 ft 224 kts 174°
2026-04-26 07:33 -44.07491 -72.29626 29322 ft 224 kts 174°
2026-04-26 07:33 -44.09010 -72.29145 29320 ft 224 kts 174°
2026-04-26 07:33 -44.10536 -72.28674 29311 ft 225 kts 175°
2026-04-26 07:34 -44.12063 -72.28187 29319 ft 225 kts 173°
2026-04-26 07:34 -44.13584 -72.27681 29327 ft 225 kts 174°
2026-04-26 07:34 -44.15112 -72.27176 29321 ft 226 kts 173°
2026-04-26 07:34 -44.16643 -72.26697 29320 ft 225 kts 175°
2026-04-26 07:35 -44.18176 -72.26238 29315 ft 225 kts 174°
2026-04-26 07:35 -44.19702 -72.25737 29328 ft 226 kts 174°
2026-04-26 07:35 -44.21210 -72.25245 29247 ft 225 kts 173°
2026-04-26 07:35 -44.22711 -72.24739 29333 ft 220 kts 175°
2026-04-26 07:36 -44.24208 -72.24300 29326 ft 220 kts 175°
2026-04-26 07:36 -44.25706 -72.23831 29313 ft 220 kts 174°
2026-04-26 07:36 -44.27194 -72.23348 29336 ft 221 kts 173°
2026-04-26 07:36 -44.28692 -72.22850 29332 ft 219 kts 174°
2026-04-26 07:37 -44.30180 -72.22386 29343 ft 221 kts 173°
2026-04-26 07:37 -44.31685 -72.21866 29340 ft 224 kts 174°
2026-04-26 07:37 -44.33203 -72.21390 29329 ft 221 kts 174°
2026-04-26 07:37 -44.34675 -72.20914 29323 ft 221 kts 174°
2026-04-26 07:38 -44.36175 -72.20439 29321 ft 222 kts 174°
2026-04-26 07:38 -44.37687 -72.19975 29356 ft 223 kts 174°
2026-04-26 07:38 -44.39214 -72.19477 29340 ft 227 kts 173°
2026-04-26 07:38 -44.40751 -72.18975 29338 ft 226 kts 174°
2026-04-26 07:39 -44.42279 -72.18479 29335 ft 225 kts 173°
2026-04-26 07:39 -44.43802 -72.17989 29339 ft 224 kts 174°
2026-04-26 07:39 -44.45323 -72.17499 29339 ft 224 kts 174°
2026-04-26 07:39 -44.46838 -72.17014 29339 ft 224 kts 174°
2026-04-26 07:40 -44.48341 -72.16530 29333 ft 225 kts 174°
2026-04-26 07:40 -44.49861 -72.16034 29347 ft 225 kts 174°
2026-04-26 07:40 -44.51393 -72.15534 29338 ft 227 kts 174°
2026-04-26 07:40 -44.52933 -72.15038 29339 ft 227 kts 174°
2026-04-26 07:41 -44.54469 -72.14539 29351 ft 227 kts 174°
2026-04-26 07:41 -44.56003 -72.14046 29358 ft 226 kts 174°
2026-04-26 07:41 -44.57536 -72.13556 29348 ft 226 kts 174°
2026-04-26 07:41 -44.59065 -72.13066 29351 ft 226 kts 174°
2026-04-26 07:42 -44.60597 -72.12552 29355 ft 226 kts 173°
2026-04-26 07:42 -44.62114 -72.12052 29353 ft 227 kts 174°
2026-04-26 07:42 -44.63658 -72.11556 29354 ft 228 kts 174°
2026-04-26 07:42 -44.65207 -72.11063 29355 ft 228 kts 174°
2026-04-26 07:43 -44.66757 -72.10555 29343 ft 229 kts 174°
2026-04-26 07:43 -44.68308 -72.10053 29339 ft 229 kts 174°
2026-04-26 07:43 -44.69860 -72.09552 29342 ft 229 kts 174°
2026-04-26 07:43 -44.71411 -72.09044 29341 ft 229 kts 174°
2026-04-26 07:44 -44.72937 -72.08544 29339 ft 227 kts 174°
2026-04-26 07:44 -44.74473 -72.08037 29345 ft 226 kts 174°
2026-04-26 07:44 -44.76008 -72.07542 29355 ft 227 kts 173°
2026-04-26 07:44 -44.77552 -72.07036 29349 ft 227 kts 173°
2026-04-26 07:45 -44.79084 -72.06535 29351 ft 226 kts 174°
2026-04-26 07:45 -44.80623 -72.06050 29354 ft 228 kts 174°
2026-04-26 07:45 -44.82165 -72.05530 29344 ft 227 kts 173°
2026-04-26 07:45 -44.83699 -72.05022 29344 ft 226 kts 174°
2026-04-26 07:46 -44.85234 -72.04535 29344 ft 227 kts 174°
2026-04-26 07:46 -44.86763 -72.04028 29353 ft 225 kts 174°
2026-04-26 07:46 -44.88268 -72.03534 29337 ft 225 kts 174°
2026-04-26 07:46 -44.89788 -72.03047 29340 ft 223 kts 174°
2026-04-26 07:47 -44.91294 -72.02534 29348 ft 223 kts 173°
2026-04-26 07:47 -44.92809 -72.02029 29351 ft 224 kts 174°
2026-04-26 07:47 -44.94340 -72.01545 29345 ft 228 kts 174°
2026-04-26 07:47 -44.95882 -72.01037 29342 ft 226 kts 174°
2026-04-26 07:48 -44.97412 -72.00538 29346 ft 226 kts 174°
2026-04-26 07:48 -44.98948 -72.00028 29352 ft 227 kts 173°
2026-04-26 07:48 -45.00490 -71.99515 29349 ft 228 kts 173°
2026-04-26 07:48 -45.02013 -71.99023 29349 ft 227 kts 174°
2026-04-26 07:49 -45.03548 -71.98514 29343 ft 226 kts 173°
2026-04-26 07:49 -45.05078 -71.98010 29340 ft 225 kts 174°
2026-04-26 07:49 -45.06611 -71.97512 29339 ft 227 kts 174°
2026-04-26 07:50 -45.09668 -71.96489 29340 ft 225 kts 174°
2026-04-26 07:50 -45.11191 -71.95989 29339 ft 224 kts 174°
2026-04-26 07:50 -45.12712 -71.95492 29377 ft 225 kts 173°
2026-04-26 07:50 -45.14246 -71.94980 29348 ft 227 kts 173°
2026-04-26 07:51 -45.15761 -71.94479 29348 ft 226 kts 173°
2026-04-26 07:51 -45.17314 -71.93965 29344 ft 225 kts 173°
2026-04-26 07:51 -45.18819 -71.93466 29344 ft 225 kts 173°
2026-04-26 07:51 -45.20336 -71.92965 29346 ft 224 kts 173°
2026-04-26 07:52 -45.21852 -71.92461 29342 ft 224 kts 173°
2026-04-26 07:52 -45.23363 -71.91957 29347 ft 223 kts 173°
2026-04-26 07:52 -45.24884 -71.91462 29348 ft 225 kts 173°
2026-04-26 07:52 -45.26408 -71.90966 29341 ft 223 kts 176°
2026-04-26 07:53 -45.27934 -71.90555 29334 ft 224 kts 174°
2026-04-26 07:53 -45.29449 -71.90058 29339 ft 223 kts 173°
2026-04-26 07:53 -45.30945 -71.89590 29343 ft 223 kts 174°
2026-04-26 07:53 -45.32469 -71.89136 29337 ft 224 kts 174°
2026-04-26 07:54 -45.33994 -71.88680 29336 ft 224 kts 174°
2026-04-26 07:54 -45.35517 -71.88220 29340 ft 224 kts 174°
2026-04-26 07:54 -45.37036 -71.87761 29339 ft 223 kts 174°
2026-04-26 07:54 -45.38555 -71.87305 29341 ft 222 kts 174°
2026-04-26 07:55 -45.40070 -71.86851 29338 ft 222 kts 174°
2026-04-26 07:55 -45.41579 -71.86390 29337 ft 222 kts 174°
2026-04-26 07:55 -45.43090 -71.85936 29334 ft 222 kts 174°
2026-04-26 07:55 -45.44593 -71.85469 29330 ft 220 kts 174°
2026-04-26 07:56 -45.46072 -71.85026 29334 ft 221 kts 175°
2026-04-26 07:56 -45.47581 -71.84585 29332 ft 222 kts 175°
2026-04-26 07:56 -45.49100 -71.84129 29338 ft 224 kts 174°
2026-04-26 07:56 -45.50626 -71.83653 29348 ft 224 kts 174°
2026-04-26 07:57 -45.52153 -71.83186 29345 ft 225 kts 174°
2026-04-26 07:57 -45.53682 -71.82729 29347 ft 224 kts 174°
2026-04-26 07:57 -45.55210 -71.82271 29339 ft 224 kts 174°
2026-04-26 07:57 -45.56716 -71.81813 29342 ft 224 kts 174°
2026-04-26 07:58 -45.58239 -71.81347 29345 ft 225 kts 174°
2026-04-26 07:58 -45.59767 -71.80883 29347 ft 224 kts 174°
2026-04-26 07:58 -45.61297 -71.80418 29342 ft 225 kts 174°
2026-04-26 07:58 -45.62828 -71.79954 29343 ft 225 kts 174°
2026-04-26 07:59 -45.64358 -71.79487 29344 ft 225 kts 174°
2026-04-26 07:59 -45.65890 -71.79021 29346 ft 225 kts 174°
2026-04-26 07:59 -45.67422 -71.78554 29347 ft 225 kts 174°
2026-04-26 07:59 -45.68953 -71.78087 29342 ft 225 kts 174°
2026-04-26 08:00 -45.70461 -71.77627 29302 ft 224 kts 174°
2026-04-26 08:00 -45.71990 -71.77160 29303 ft 225 kts 174°
2026-04-26 08:00 -45.73517 -71.76694 29303 ft 225 kts 174°
2026-04-26 08:00 -45.75049 -71.76228 29296 ft 225 kts 174°
2026-04-26 08:01 -45.76586 -71.75756 29295 ft 226 kts 174°
2026-04-26 08:01 -45.78127 -71.75286 29288 ft 226 kts 174°
2026-04-26 08:01 -45.79668 -71.74815 29284 ft 227 kts 174°
2026-04-26 08:01 -45.81206 -71.74343 29279 ft 226 kts 174°
2026-04-26 08:02 -45.82745 -71.73871 29273 ft 226 kts 174°
2026-04-26 08:02 -45.84263 -71.73408 29272 ft 226 kts 174°
2026-04-26 08:02 -45.85801 -71.72936 29271 ft 226 kts 174°
2026-04-26 08:02 -45.87339 -71.72462 29270 ft 226 kts 174°
2026-04-26 08:03 -45.88873 -71.71992 29263 ft 226 kts 174°
2026-04-26 08:03 -45.90408 -71.71520 29264 ft 225 kts 174°
2026-04-26 08:03 -45.91946 -71.71158 29270 ft 223 kts 180°
2026-04-26 08:03 -45.93490 -71.71023 29270 ft 222 kts 180°
2026-04-26 08:04 -45.95033 -71.70858 29272 ft 222 kts 179°
2026-04-26 08:04 -45.96554 -71.70691 29270 ft 222 kts 179°
2026-04-26 08:04 -45.98093 -71.70528 29270 ft 222 kts 179°
2026-04-26 08:04 -45.99632 -71.70367 29270 ft 222 kts 179°
2026-04-26 08:05 -46.01166 -71.70206 29271 ft 221 kts 179°
2026-04-26 08:05 -46.02702 -71.70044 29275 ft 221 kts 179°
2026-04-26 08:05 -46.04237 -71.69881 29278 ft 221 kts 179°
2026-04-26 08:05 -46.05771 -71.69719 29285 ft 221 kts 179°
2026-04-26 08:06 -46.07308 -71.69556 29282 ft 221 kts 179°
2026-04-26 08:06 -46.08823 -71.69396 29286 ft 221 kts 179°
2026-04-26 08:06 -46.10358 -71.69235 29290 ft 221 kts 179°
2026-04-26 08:06 -46.11897 -71.69073 29297 ft 222 kts 179°
2026-04-26 08:07 -46.13437 -71.68909 29303 ft 222 kts 179°
2026-04-26 08:07 -46.14976 -71.68745 29308 ft 222 kts 179°
2026-04-26 08:07 -46.16513 -71.68582 29304 ft 221 kts 179°
2026-04-26 08:07 -46.18049 -71.68420 29307 ft 221 kts 179°
2026-04-26 08:08 -46.19580 -71.68258 29310 ft 221 kts 179°
2026-04-26 08:08 -46.21118 -71.68094 29317 ft 221 kts 179°
2026-04-26 08:08 -46.22651 -71.67932 29320 ft 222 kts 179°
2026-04-26 08:08 -46.24170 -71.67770 29319 ft 222 kts 179°
2026-04-26 08:09 -46.25712 -71.67606 29321 ft 222 kts 179°
2026-04-26 08:09 -46.27255 -71.67442 29324 ft 222 kts 179°
2026-04-26 08:09 -46.28798 -71.67277 29325 ft 222 kts 179°
2026-04-26 08:09 -46.30340 -71.67113 29325 ft 222 kts 179°
2026-04-26 08:10 -46.31882 -71.66949 29336 ft 222 kts 179°
2026-04-26 08:10 -46.33426 -71.66784 29323 ft 222 kts 179°
2026-04-26 08:10 -46.34964 -71.66620 29324 ft 221 kts 179°
2026-04-26 08:10 -46.36479 -71.66452 29303 ft 221 kts 179°
2026-04-26 08:11 -46.38006 -71.66288 29312 ft 221 kts 180°
2026-04-26 08:11 -46.39543 -71.66132 29311 ft 221 kts 179°
2026-04-26 08:11 -46.41074 -71.65969 29305 ft 221 kts 179°
2026-04-26 08:11 -46.42611 -71.65803 29305 ft 222 kts 179°
2026-04-26 08:12 -46.44149 -71.65637 29308 ft 221 kts 179°
2026-04-26 08:12 -46.45686 -71.65473 29304 ft 222 kts 179°
2026-04-26 08:12 -46.47226 -71.65308 29308 ft 222 kts 179°
2026-04-26 08:12 -46.48745 -71.65145 29310 ft 222 kts 179°
2026-04-26 08:13 -46.50286 -71.64980 29310 ft 222 kts 179°
2026-04-26 08:13 -46.51827 -71.64814 29313 ft 222 kts 179°
2026-04-26 08:13 -46.53370 -71.64651 29326 ft 222 kts 179°
2026-04-26 08:13 -46.54914 -71.64483 29326 ft 222 kts 179°
2026-04-26 08:14 -46.56456 -71.64316 29327 ft 222 kts 179°
2026-04-26 08:14 -46.57997 -71.64151 29328 ft 222 kts 179°
2026-04-26 08:14 -46.59517 -71.63987 29328 ft 222 kts 179°
2026-04-26 08:14 -46.61059 -71.63824 29330 ft 222 kts 179°
2026-04-26 08:15 -46.62600 -71.63659 29325 ft 223 kts 179°
2026-04-26 08:15 -46.64143 -71.63489 29324 ft 222 kts 179°
2026-04-26 08:15 -46.65688 -71.63320 29330 ft 222 kts 179°
2026-04-26 08:15 -46.67226 -71.63155 29328 ft 222 kts 179°
2026-04-26 08:16 -46.68765 -71.62987 29328 ft 222 kts 179°
2026-04-26 08:16 -46.70305 -71.62818 29327 ft 222 kts 179°
2026-04-26 08:16 -46.71841 -71.62658 29327 ft 221 kts 179°
2026-04-26 08:16 -46.73355 -71.62497 29337 ft 221 kts 179°
2026-04-26 08:17 -46.74889 -71.62329 29336 ft 221 kts 178°
2026-04-26 08:17 -46.76424 -71.62161 29336 ft 221 kts 178°
2026-04-26 08:17 -46.77959 -71.61993 29336 ft 220 kts 179°
2026-04-26 08:17 -46.79488 -71.61828 29342 ft 221 kts 179°
2026-04-26 08:18 -46.81022 -71.61663 29342 ft 222 kts 179°
2026-04-26 08:18 -46.82562 -71.61497 29348 ft 222 kts 179°
2026-04-26 08:18 -46.84101 -71.61329 29348 ft 223 kts 179°
2026-04-26 08:18 -46.85647 -71.61161 29348 ft 223 kts 179°
2026-04-26 08:19 -46.87195 -71.60993 29348 ft 223 kts 179°
2026-04-26 08:19 -46.88724 -71.60827 29348 ft 223 kts 179°
2026-04-26 08:19 -46.90276 -71.60658 29349 ft 224 kts 179°
2026-04-26 08:19 -46.91830 -71.60488 29348 ft 224 kts 179°
2026-04-26 08:20 -46.93383 -71.60319 29346 ft 224 kts 179°
2026-04-26 08:20 -46.94940 -71.60150 29350 ft 225 kts 178°
2026-04-26 08:20 -46.96501 -71.59980 29347 ft 225 kts 178°
2026-04-26 08:20 -46.98058 -71.59808 29352 ft 224 kts 178°
2026-04-26 08:21 -46.99617 -71.59639 29344 ft 225 kts 178°
2026-04-26 08:21 -47.01155 -71.59472 29347 ft 225 kts 178°
2026-04-26 08:21 -47.02713 -71.59302 29345 ft 225 kts 178°
2026-04-26 08:21 -47.04277 -71.59131 29345 ft 225 kts 178°
2026-04-26 08:22 -47.05840 -71.58958 29349 ft 225 kts 178°
2026-04-26 08:22 -47.07405 -71.58788 29347 ft 226 kts 178°
2026-04-26 08:22 -47.08972 -71.58616 29346 ft 226 kts 178°
2026-04-26 08:22 -47.10542 -71.58444 29348 ft 226 kts 178°
2026-04-26 08:23 -47.12115 -71.58271 29344 ft 227 kts 178°
2026-04-26 08:23 -47.13687 -71.58077 29332 ft 226 kts 179°
2026-04-26 08:23 -47.15240 -71.57920 29332 ft 227 kts 180°
2026-04-26 08:23 -47.16825 -71.57766 29335 ft 229 kts 179°
2026-04-26 08:24 -47.18419 -71.57582 29335 ft 230 kts 179°
2026-04-26 08:24 -47.20018 -71.57401 29334 ft 231 kts 179°
2026-04-26 08:24 -47.21618 -71.57226 29335 ft 231 kts 179°
2026-04-26 08:24 -47.23218 -71.57050 29337 ft 231 kts 179°
2026-04-26 08:25 -47.24818 -71.56875 29332 ft 231 kts 179°
2026-04-26 08:25 -47.26419 -71.56698 29334 ft 231 kts 179°
2026-04-26 08:25 -47.27997 -71.56523 29334 ft 230 kts 179°
2026-04-26 08:25 -47.29594 -71.56348 29334 ft 230 kts 179°
2026-04-26 08:26 -47.31189 -71.56172 29334 ft 230 kts 179°
2026-04-26 08:26 -47.32786 -71.55996 29329 ft 230 kts 179°
2026-04-26 08:26 -47.34384 -71.55818 29331 ft 231 kts 179°
2026-04-26 08:26 -47.35984 -71.55639 29329 ft 230 kts 179°
2026-04-26 08:27 -47.37582 -71.55462 29329 ft 230 kts 179°
2026-04-26 08:27 -47.39182 -71.55288 29329 ft 231 kts 179°
2026-04-26 08:27 -47.40760 -71.55112 29332 ft 231 kts 179°
2026-04-26 08:27 -47.42362 -71.54935 29332 ft 231 kts 179°
2026-04-26 08:28 -47.43966 -71.54750 29322 ft 231 kts 179°
2026-04-26 08:28 -47.45568 -71.54577 29321 ft 231 kts 179°
2026-04-26 08:28 -47.47173 -71.54400 29321 ft 231 kts 179°
2026-04-26 08:28 -47.48774 -71.54221 29321 ft 231 kts 179°
2026-04-26 08:29 -47.50377 -71.54043 29321 ft 230 kts 179°
2026-04-26 08:29 -47.51972 -71.53864 29321 ft 230 kts 179°
2026-04-26 08:29 -47.53570 -71.53686 29320 ft 230 kts 179°
2026-04-26 08:29 -47.55145 -71.53511 29320 ft 230 kts 179°
2026-04-26 08:30 -47.56740 -71.53333 29320 ft 230 kts 179°
2026-04-26 08:30 -47.58335 -71.53155 29338 ft 230 kts 179°
2026-04-26 08:30 -47.59930 -71.52977 29336 ft 230 kts 179°
2026-04-26 08:30 -47.61523 -71.52799 29335 ft 229 kts 179°
2026-04-26 08:31 -47.63113 -71.52621 29336 ft 229 kts 179°
2026-04-26 08:31 -47.64703 -71.52443 29338 ft 229 kts 179°
2026-04-26 08:31 -47.66291 -71.52265 29335 ft 229 kts 179°
2026-04-26 08:31 -47.67864 -71.52089 29340 ft 229 kts 179°
2026-04-26 08:32 -47.69470 -71.51909 29340 ft 229 kts 179°
2026-04-26 08:32 -47.71042 -71.51733 29340 ft 229 kts 179°
2026-04-26 08:32 -47.72630 -71.51554 29341 ft 229 kts 179°
2026-04-26 08:32 -47.74222 -71.51375 29340 ft 229 kts 179°
2026-04-26 08:33 -47.75814 -71.51197 29347 ft 229 kts 179°
2026-04-26 08:33 -47.77406 -71.51017 29345 ft 229 kts 179°
2026-04-26 08:33 -47.78997 -71.50839 29345 ft 229 kts 179°
2026-04-26 08:33 -47.80588 -71.50659 29352 ft 230 kts 178°
2026-04-26 08:34 -47.82182 -71.50480 29349 ft 230 kts 178°
2026-04-26 08:34 -47.83752 -71.50303 29348 ft 229 kts 178°
2026-04-26 08:34 -47.85344 -71.50124 29351 ft 230 kts 178°
2026-04-26 08:34 -47.86938 -71.49943 29351 ft 230 kts 178°
2026-04-26 08:35 -47.88531 -71.49763 29350 ft 229 kts 178°
2026-04-26 08:35 -47.90120 -71.49584 29349 ft 229 kts 178°
2026-04-26 08:35 -47.91711 -71.49398 29322 ft 229 kts 178°
2026-04-26 08:35 -47.93301 -71.49208 29336 ft 230 kts 179°
2026-04-26 08:36 -47.94899 -71.49049 29338 ft 231 kts 179°
2026-04-26 08:36 -47.96501 -71.48868 29337 ft 231 kts 179°
2026-04-26 08:36 -47.98085 -71.48683 29335 ft 232 kts 179°
2026-04-26 08:36 -47.99693 -71.48499 29338 ft 232 kts 179°
2026-04-26 08:37 -48.01305 -71.48317 29337 ft 233 kts 179°
2026-04-26 08:37 -48.02923 -71.48134 29352 ft 233 kts 179°
2026-04-26 08:37 -48.04543 -71.47948 29351 ft 234 kts 179°
2026-04-26 08:37 -48.06165 -71.47762 29352 ft 234 kts 179°
2026-04-26 08:38 -48.07786 -71.47575 29357 ft 234 kts 179°
2026-04-26 08:38 -48.09408 -71.47389 29356 ft 234 kts 179°
2026-04-26 08:38 -48.11004 -71.47205 29353 ft 234 kts 179°
2026-04-26 08:38 -48.12626 -71.47019 29353 ft 234 kts 179°
2026-04-26 08:39 -48.14247 -71.46832 29353 ft 234 kts 179°
2026-04-26 08:39 -48.15867 -71.46646 29352 ft 233 kts 179°
2026-04-26 08:39 -48.17487 -71.46459 29353 ft 233 kts 179°
2026-04-26 08:39 -48.19106 -71.46273 29349 ft 233 kts 179°
2026-04-26 08:40 -48.20725 -71.46085 29345 ft 233 kts 179°
2026-04-26 08:40 -48.22324 -71.45901 29346 ft 234 kts 179°
2026-04-26 08:40 -48.23945 -71.45713 29358 ft 234 kts 179°
2026-04-26 08:40 -48.25572 -71.45526 29350 ft 235 kts 179°
2026-04-26 08:41 -48.27198 -71.45338 29345 ft 234 kts 179°
2026-04-26 08:41 -48.28823 -71.45150 29342 ft 234 kts 179°
2026-04-26 08:41 -48.30440 -71.44962 29342 ft 233 kts 179°
2026-04-26 08:41 -48.32063 -71.44774 29341 ft 233 kts 179°
2026-04-26 08:42 -48.33677 -71.44587 29341 ft 233 kts 179°
2026-04-26 08:42 -48.35296 -71.44399 29342 ft 233 kts 179°
2026-04-26 08:42 -48.36919 -71.44211 29338 ft 233 kts 179°
2026-04-26 08:42 -48.38514 -71.44025 29339 ft 234 kts 179°
2026-04-26 08:43 -48.40136 -71.43836 29340 ft 234 kts 179°
2026-04-26 08:43 -48.41757 -71.43648 29341 ft 234 kts 179°
2026-04-26 08:43 -48.43379 -71.43459 29341 ft 234 kts 179°
2026-04-26 08:43 -48.45000 -71.43269 29342 ft 234 kts 179°
2026-04-26 08:44 -48.46623 -71.43081 29340 ft 234 kts 179°
2026-04-26 08:44 -48.48247 -71.42891 29341 ft 234 kts 179°
2026-04-26 08:44 -48.49872 -71.42702 29340 ft 234 kts 179°
2026-04-26 08:44 -48.51474 -71.42514 29340 ft 234 kts 179°
2026-04-26 08:45 -48.53094 -71.42325 29341 ft 234 kts 179°
2026-04-26 08:45 -48.54716 -71.42135 29332 ft 234 kts 179°
2026-04-26 08:45 -48.56338 -71.41945 29332 ft 234 kts 179°
2026-04-26 08:45 -48.57961 -71.41756 29331 ft 234 kts 179°
2026-04-26 08:46 -48.59583 -71.41566 29328 ft 234 kts 179°
2026-04-26 08:46 -48.61204 -71.41375 29327 ft 234 kts 179°
2026-04-26 08:46 -48.62827 -71.41185 29328 ft 233 kts 179°
2026-04-26 08:46 -48.64444 -71.40995 29324 ft 234 kts 179°
2026-04-26 08:47 -48.66066 -71.40804 29320 ft 234 kts 179°
2026-04-26 08:47 -48.67666 -71.40616 29319 ft 234 kts 179°
2026-04-26 08:47 -48.69288 -71.40426 29325 ft 234 kts 178°
2026-04-26 08:47 -48.70912 -71.40234 29323 ft 235 kts 178°
2026-04-26 08:48 -48.72540 -71.40034 29301 ft 235 kts 178°
2026-04-26 08:48 -48.74168 -71.39830 29312 ft 235 kts 180°
2026-04-26 08:48 -48.75801 -71.39665 29310 ft 235 kts 179°
2026-04-26 08:48 -48.77434 -71.39473 29315 ft 236 kts 179°
2026-04-26 08:49 -48.79071 -71.39272 29307 ft 236 kts 179°
2026-04-26 08:49 -48.80690 -71.39079 29309 ft 237 kts 179°
2026-04-26 08:49 -48.82332 -71.38886 29301 ft 237 kts 179°
2026-04-26 08:49 -48.83970 -71.38693 29300 ft 237 kts 179°
2026-04-26 08:50 -48.85612 -71.38498 29304 ft 237 kts 179°
2026-04-26 08:50 -48.87255 -71.38303 29303 ft 237 kts 179°
2026-04-26 08:50 -48.88897 -71.38109 29303 ft 237 kts 179°
2026-04-26 08:50 -48.90539 -71.37914 29308 ft 237 kts 179°
2026-04-26 08:51 -48.93805 -71.37526 29300 ft 237 kts 179°
2026-04-26 08:51 -48.95447 -71.37331 29300 ft 237 kts 179°
2026-04-26 08:51 -48.97089 -71.37136 29297 ft 236 kts 179°
2026-04-26 08:52 -48.98726 -71.36940 29300 ft 236 kts 179°
2026-04-26 08:52 -49.00365 -71.36745 29292 ft 236 kts 179°
2026-04-26 08:52 -49.02005 -71.36550 29295 ft 236 kts 179°
2026-04-26 08:52 -49.03642 -71.36355 29294 ft 237 kts 179°
2026-04-26 08:53 -49.05286 -71.36159 29299 ft 236 kts 179°
2026-04-26 08:53 -49.06923 -71.35963 29297 ft 237 kts 179°
2026-04-26 08:53 -49.08541 -71.35770 29285 ft 236 kts 179°
2026-04-26 08:53 -49.10177 -71.35574 29288 ft 236 kts 179°
2026-04-26 08:54 -49.11815 -71.35379 29290 ft 236 kts 179°
2026-04-26 08:54 -49.13455 -71.35183 29295 ft 237 kts 179°
2026-04-26 08:54 -49.15100 -71.34986 29295 ft 237 kts 179°
2026-04-26 08:54 -49.16745 -71.34788 29295 ft 237 kts 179°
2026-04-26 08:55 -49.18389 -71.34591 29289 ft 237 kts 179°
2026-04-26 08:55 -49.20033 -71.34393 29290 ft 237 kts 179°
2026-04-26 08:55 -49.21678 -71.34196 29289 ft 237 kts 179°
2026-04-26 08:55 -49.23300 -71.34001 29290 ft 237 kts 179°
2026-04-26 08:56 -49.24943 -71.33803 29287 ft 237 kts 179°
2026-04-26 08:56 -49.26057 -71.33669 29285 ft 237 kts 179°
2026-04-26 08:56 -49.28237 -71.33407 29281 ft 237 kts 179°
2026-04-26 08:56 -49.29883 -71.33209 29280 ft 237 kts 179°
2026-04-26 08:57 -49.30974 -71.33077 29280 ft 237 kts 179°
2026-04-26 08:57 -49.33174 -71.32811 29280 ft 237 kts 179°
2026-04-26 08:57 -49.34818 -71.32613 29279 ft 237 kts 179°
2026-04-26 08:57 -49.36464 -71.32414 29283 ft 237 kts 179°
2026-04-26 08:58 -49.38089 -71.32217 29285 ft 238 kts 179°
2026-04-26 08:58 -49.39738 -71.32018 29287 ft 238 kts 179°
2026-04-26 08:58 -49.41385 -71.31818 29285 ft 237 kts 179°
2026-04-26 08:58 -49.43031 -71.31619 29286 ft 237 kts 179°
2026-04-26 08:59 -49.44676 -71.31419 29277 ft 237 kts 179°
2026-04-26 08:59 -49.46323 -71.31220 29276 ft 237 kts 179°
2026-04-26 08:59 -49.47969 -71.31020 29277 ft 237 kts 179°
2026-04-26 08:59 -49.49616 -71.30820 29276 ft 237 kts 179°
2026-04-26 09:00 -49.51241 -71.30622 29275 ft 237 kts 179°
2026-04-26 09:00 -49.52884 -71.30423 29275 ft 238 kts 179°
2026-04-26 09:00 -49.54532 -71.30221 29276 ft 238 kts 179°
2026-04-26 09:00 -49.56176 -71.29997 29269 ft 237 kts 179°
2026-04-26 09:01 -49.57821 -71.29814 29266 ft 237 kts 180°
2026-04-26 09:01 -49.59472 -71.29627 29266 ft 238 kts 180°
2026-04-26 09:01 -49.61126 -71.29421 29265 ft 239 kts 179°
2026-04-26 09:01 -49.62782 -71.29217 29267 ft 238 kts 180°
2026-04-26 09:02 -49.64438 -71.29023 29269 ft 239 kts 180°
2026-04-26 09:02 -49.66074 -71.28830 29272 ft 239 kts 180°
2026-04-26 09:02 -49.67737 -71.28634 29271 ft 240 kts 180°
2026-04-26 09:02 -49.69403 -71.28436 29271 ft 240 kts 180°
2026-04-26 09:03 -49.71066 -71.28238 29272 ft 240 kts 180°
2026-04-26 09:03 -49.72738 -71.28040 29269 ft 241 kts 180°
2026-04-26 09:03 -49.74403 -71.27841 29266 ft 240 kts 180°
2026-04-26 09:03 -49.76069 -71.27642 29266 ft 240 kts 180°
2026-04-26 09:04 -49.77734 -71.27444 29269 ft 240 kts 180°
2026-04-26 09:04 -49.79403 -71.27246 29267 ft 240 kts 180°
2026-04-26 09:04 -49.81048 -71.27049 29287 ft 241 kts 180°
2026-04-26 09:04 -49.82720 -71.26850 29279 ft 241 kts 180°
2026-04-26 09:05 -49.84391 -71.26650 29279 ft 241 kts 180°
2026-04-26 09:05 -49.86062 -71.26451 29279 ft 241 kts 180°
2026-04-26 09:05 -49.87732 -71.26250 29279 ft 241 kts 180°
2026-04-26 09:05 -49.89403 -71.26051 29279 ft 241 kts 180°
2026-04-26 09:06 -49.91072 -71.25851 29275 ft 240 kts 180°
2026-04-26 09:06 -49.92734 -71.25651 29275 ft 240 kts 180°
2026-04-26 09:06 -49.94382 -71.25455 29275 ft 240 kts 180°
2026-04-26 09:06 -49.96046 -71.25254 29276 ft 240 kts 180°
2026-04-26 09:07 -49.97714 -71.25054 29276 ft 241 kts 180°
2026-04-26 09:07 -49.99386 -71.24854 29275 ft 241 kts 180°
2026-04-26 09:07 -50.01058 -71.24653 29271 ft 241 kts 180°
2026-04-26 09:07 -50.02733 -71.24450 29269 ft 241 kts 180°
2026-04-26 09:08 -50.04408 -71.24249 29284 ft 241 kts 180°
2026-04-26 09:08 -50.06087 -71.24047 29268 ft 242 kts 180°
2026-04-26 09:08 -50.07748 -71.23847 29268 ft 243 kts 180°
2026-04-26 09:08 -50.09432 -71.23644 29265 ft 243 kts 180°
2026-04-26 09:09 -50.11117 -71.23439 29265 ft 243 kts 180°
2026-04-26 09:09 -50.12805 -71.23236 29266 ft 243 kts 180°
2026-04-26 09:09 -50.14494 -71.23032 29267 ft 243 kts 180°
2026-04-26 09:09 -50.16181 -71.22827 29266 ft 244 kts 180°
2026-04-26 09:10 -50.17877 -71.22621 29266 ft 244 kts 180°
2026-04-26 09:10 -50.19566 -71.22419 29266 ft 244 kts 180°
2026-04-26 09:10 -50.21256 -71.22212 29266 ft 244 kts 180°
2026-04-26 09:10 -50.22924 -71.22010 29263 ft 244 kts 180°
2026-04-26 09:11 -50.24611 -71.21805 29258 ft 243 kts 180°
2026-04-26 09:11 -50.26296 -71.21600 29257 ft 243 kts 180°
2026-04-26 09:11 -50.27978 -71.21395 29267 ft 242 kts 180°
2026-04-26 09:11 -50.29660 -71.21192 29261 ft 242 kts 180°
2026-04-26 09:12 -50.31342 -71.20986 29260 ft 243 kts 180°
2026-04-26 09:12 -50.33026 -71.20781 29260 ft 243 kts 180°
2026-04-26 09:12 -50.34711 -71.20576 29260 ft 243 kts 180°
2026-04-26 09:12 -50.36373 -71.20373 29261 ft 243 kts 180°
2026-04-26 09:13 -50.38060 -71.20167 29248 ft 243 kts 180°
2026-04-26 09:13 -50.39747 -71.19961 29246 ft 243 kts 180°
2026-04-26 09:13 -50.41432 -71.19754 29239 ft 243 kts 180°
2026-04-26 09:13 -50.43121 -71.19548 29241 ft 243 kts 180°
2026-04-26 09:14 -50.44814 -71.19341 29243 ft 244 kts 180°
2026-04-26 09:14 -50.46510 -71.19134 29239 ft 245 kts 180°
2026-04-26 09:14 -50.48210 -71.18924 29240 ft 245 kts 180°
2026-04-26 09:14 -50.49890 -71.18719 29240 ft 246 kts 180°
2026-04-26 09:15 -50.51596 -71.18510 29258 ft 246 kts 180°
2026-04-26 09:15 -50.53306 -71.18299 29253 ft 247 kts 180°
2026-04-26 09:15 -50.55017 -71.18088 29253 ft 247 kts 180°
2026-04-26 09:15 -50.56729 -71.17877 29250 ft 247 kts 180°
2026-04-26 09:16 -50.58443 -71.17666 29247 ft 247 kts 180°
2026-04-26 09:16 -50.60158 -71.17455 29247 ft 247 kts 180°
2026-04-26 09:16 -50.61873 -71.17244 29248 ft 247 kts 180°
2026-04-26 09:16 -50.63590 -71.17032 29247 ft 248 kts 180°
2026-04-26 09:17 -50.65285 -71.16822 29245 ft 248 kts 180°
2026-04-26 09:17 -50.66443 -71.16679 29245 ft 248 kts 180°
2026-04-26 09:17 -50.68717 -71.16398 29245 ft 248 kts 180°
2026-04-26 09:17 -50.70436 -71.16185 29245 ft 248 kts 180°
2026-04-26 09:18 -50.72156 -71.15972 29245 ft 248 kts 180°
2026-04-26 09:18 -50.73878 -71.15759 29246 ft 248 kts 180°
2026-04-26 09:18 -50.75603 -71.15541 29243 ft 249 kts 180°
2026-04-26 09:18 -50.77332 -71.15323 29243 ft 249 kts 180°
2026-04-26 09:19 -50.79060 -71.15106 29240 ft 249 kts 180°
2026-04-26 09:19 -50.80767 -71.14892 29241 ft 249 kts 180°
2026-04-26 09:19 -50.82498 -71.14674 29241 ft 250 kts 180°
2026-04-26 09:19 -50.84230 -71.14455 29237 ft 250 kts 180°
2026-04-26 09:20 -50.85962 -71.14238 29237 ft 250 kts 180°
2026-04-26 09:20 -50.87694 -71.14019 29238 ft 250 kts 180°
2026-04-26 09:20 -50.89425 -71.13801 29236 ft 250 kts 180°
2026-04-26 09:20 -50.91159 -71.13581 29237 ft 250 kts 180°
2026-04-26 09:21 -50.92892 -71.13362 29236 ft 250 kts 180°
2026-04-26 09:21 -50.94625 -71.13143 29233 ft 250 kts 180°
2026-04-26 09:21 -50.96358 -71.12924 29233 ft 250 kts 180°
2026-04-26 09:21 -50.98068 -71.12708 29233 ft 250 kts 180°
2026-04-26 09:22 -50.99804 -71.12486 29231 ft 251 kts 180°
2026-04-26 09:22 -51.01544 -71.12266 29231 ft 251 kts 180°
2026-04-26 09:22 -51.03284 -71.12045 29231 ft 251 kts 180°
2026-04-26 09:22 -51.05024 -71.11824 29230 ft 251 kts 180°
2026-04-26 09:23 -51.06763 -71.11602 29229 ft 251 kts 180°
2026-04-26 09:23 -51.08503 -71.11381 29228 ft 251 kts 180°
2026-04-26 09:23 -51.10221 -71.11162 29228 ft 251 kts 180°
2026-04-26 09:23 -51.11961 -71.10946 29228 ft 251 kts 180°
2026-04-26 09:24 -51.13698 -71.10738 29225 ft 251 kts 180°
2026-04-26 09:24 -51.15439 -71.10515 29225 ft 251 kts 180°
2026-04-26 09:24 -51.17180 -71.10289 29225 ft 251 kts 180°
2026-04-26 09:24 -51.18922 -71.10066 29225 ft 251 kts 180°
2026-04-26 09:25 -51.20663 -71.09843 29221 ft 251 kts 180°
2026-04-26 09:25 -51.22405 -71.09620 29232 ft 251 kts 180°
2026-04-26 09:25 -51.24150 -71.09397 29222 ft 252 kts 180°
2026-04-26 09:25 -51.25873 -71.09174 29222 ft 252 kts 180°
2026-04-26 09:26 -51.27618 -71.08951 29225 ft 252 kts 180°
2026-04-26 09:26 -51.29363 -71.08726 29224 ft 252 kts 180°
2026-04-26 09:26 -51.30539 -71.08574 29224 ft 252 kts 180°
2026-04-26 09:26 -51.32853 -71.08276 29219 ft 251 kts 180°
2026-04-26 09:27 -51.34593 -71.08052 29215 ft 251 kts 180°
2026-04-26 09:27 -51.36342 -71.07826 29215 ft 252 kts 180°
2026-04-26 09:27 -51.38084 -71.07602 29215 ft 252 kts 180°
2026-04-26 09:27 -51.39241 -71.07451 29215 ft 252 kts 180°
2026-04-26 09:28 -51.41575 -71.07150 29218 ft 252 kts 180°
2026-04-26 09:28 -51.43298 -71.06927 29215 ft 252 kts 180°
2026-04-26 09:28 -51.45044 -71.06701 29215 ft 252 kts 180°
2026-04-26 09:28 -51.46790 -71.06474 29243 ft 252 kts 180°
2026-04-26 09:29 -51.48541 -71.06248 29213 ft 253 kts 180°
2026-04-26 09:29 -51.50292 -71.06020 29213 ft 252 kts 180°
2026-04-26 09:29 -51.52041 -71.05792 29213 ft 252 kts 180°
2026-04-26 09:29 -51.53790 -71.05565 29215 ft 252 kts 180°
2026-04-26 09:30 -51.54945 -71.05415 29206 ft 252 kts 180°
2026-04-26 09:30 -51.57262 -71.05113 29206 ft 252 kts 180°
2026-04-26 09:30 -51.59005 -71.04886 29205 ft 252 kts 180°
2026-04-26 09:30 -51.60755 -71.04657 29206 ft 252 kts 180°
2026-04-26 09:31 -51.62497 -71.04430 29212 ft 252 kts 180°
2026-04-26 09:31 -51.64243 -71.04202 29202 ft 252 kts 180°
2026-04-26 09:31 -51.65400 -71.04051 29202 ft 252 kts 180°
2026-04-26 09:31 -51.67147 -71.03822 29209 ft 252 kts 180°
2026-04-26 09:32 -51.68894 -71.03594 29199 ft 252 kts 180°
2026-04-26 09:32 -51.70641 -71.03364 29200 ft 252 kts 180°
2026-04-26 09:32 -51.72959 -71.03061 29202 ft 253 kts 180°
2026-04-26 09:32 -51.74713 -71.02830 29207 ft 253 kts 180°
2026-04-26 09:33 -51.75897 -71.02675 29199 ft 253 kts 180°
2026-04-26 09:33 -51.77658 -71.02444 29202 ft 253 kts 180°
2026-04-26 09:33 -51.79388 -71.02217 29201 ft 253 kts 180°
2026-04-26 09:33 -51.81145 -71.01985 29196 ft 253 kts 180°
2026-04-26 09:34 -51.82903 -71.01754 29199 ft 253 kts 180°
2026-04-26 09:34 -51.84660 -71.01522 29198 ft 253 kts 180°
2026-04-26 09:34 -51.86418 -71.01290 29198 ft 253 kts 180°
2026-04-26 09:34 -51.88176 -71.01057 29197 ft 253 kts 180°
2026-04-26 09:35 -51.89932 -71.00826 29194 ft 253 kts 180°
2026-04-26 09:35 -51.91688 -71.00594 29194 ft 253 kts 180°
2026-04-26 09:35 -51.93441 -71.00365 29192 ft 252 kts 180°
2026-04-26 09:35 -51.95187 -71.00140 28792 ft 261 kts 180°
2026-04-26 09:36 -51.97041 -70.99898 28254 ft 272 kts 180°
2026-04-26 09:36 -51.98939 -70.99640 27728 ft 275 kts 180°
2026-04-26 09:36 -52.00850 -70.99453 27202 ft 275 kts 182°
2026-04-26 09:36 -52.02770 -70.99330 26700 ft 277 kts 180°
2026-04-26 09:37 -52.04703 -70.99135 26198 ft 278 kts 180°
2026-04-26 09:37 -52.06636 -70.98970 25705 ft 279 kts 181°
2026-04-26 09:37 -52.08581 -70.98827 25220 ft 280 kts 181°
2026-04-26 09:37 -52.10534 -70.98676 24744 ft 282 kts 180°
2026-04-26 09:38 -52.12469 -70.98522 24282 ft 283 kts 180°
2026-04-26 09:38 -52.14437 -70.98373 23794 ft 284 kts 181°
2026-04-26 09:38 -52.16415 -70.98222 23251 ft 285 kts 180°
2026-04-26 09:38 -52.18393 -70.98052 22709 ft 284 kts 180°
2026-04-26 09:39 -52.20368 -70.97899 22192 ft 284 kts 181°
2026-04-26 09:39 -52.22336 -70.97749 21671 ft 283 kts 180°
2026-04-26 09:39 -52.24291 -70.97595 21156 ft 281 kts 180°
2026-04-26 09:39 -52.26244 -70.97440 20649 ft 280 kts 180°
2026-04-26 09:40 -52.28177 -70.97288 20152 ft 278 kts 180°
2026-04-26 09:40 -52.30083 -70.97137 19663 ft 276 kts 180°
2026-04-26 09:40 -52.31994 -70.96985 19181 ft 275 kts 180°
2026-04-26 09:40 -52.33283 -70.96884 18860 ft 274 kts 180°
2026-04-26 09:41 -52.35792 -70.96685 18199 ft 272 kts 180°
2026-04-26 09:41 -52.37674 -70.96533 17659 ft 270 kts 180°
2026-04-26 09:41 -52.38914 -70.96436 17307 ft 269 kts 180°
2026-04-26 09:41 -52.41399 -70.96239 16606 ft 266 kts 180°
2026-04-26 09:42 -52.43240 -70.96092 16093 ft 264 kts 180°
2026-04-26 09:42 -52.45070 -70.95947 15608 ft 262 kts 180°
2026-04-26 09:42 -52.46865 -70.95803 15118 ft 261 kts 180°
2026-04-26 09:42 -52.48672 -70.95660 14630 ft 259 kts 180°
2026-04-26 09:43 -52.50469 -70.95516 14143 ft 258 kts 180°
2026-04-26 09:43 -52.52256 -70.95373 13621 ft 256 kts 180°
2026-04-26 09:43 -52.54032 -70.95231 13085 ft 255 kts 180°
2026-04-26 09:43 -52.55800 -70.95089 12553 ft 254 kts 180°
2026-04-26 09:44 -52.57560 -70.94948 12032 ft 253 kts 180°
2026-04-26 09:44 -52.59309 -70.94808 11524 ft 252 kts 180°
2026-04-26 09:44 -52.61054 -70.94669 11014 ft 250 kts 180°
2026-04-26 09:44 -52.62768 -70.94530 10526 ft 250 kts 180°
2026-04-26 09:45 -52.64500 -70.94392 10030 ft 249 kts 180°
2026-04-26 09:45 -52.66224 -70.94252 9485 ft 248 kts 180°
2026-04-26 09:45 -52.67942 -70.94116 8947 ft 247 kts 180°
2026-04-26 09:45 -52.69656 -70.93975 8418 ft 246 kts 180°
2026-04-26 09:46 -52.71364 -70.93839 7905 ft 246 kts 180°
2026-04-26 09:46 -52.73069 -70.93702 7388 ft 245 kts 180°
2026-04-26 09:46 -52.74770 -70.93565 6874 ft 244 kts 180°
2026-04-26 09:46 -52.76444 -70.93429 6366 ft 244 kts 180°
2026-04-26 09:47 -52.78133 -70.93291 5827 ft 242 kts 180°
2026-04-26 09:47 -52.79812 -70.93158 5299 ft 241 kts 180°
2026-04-26 09:47 -52.81474 -70.93021 4767 ft 239 kts 180°
2026-04-26 09:47 -52.83125 -70.92880 4230 ft 237 kts 179°
2026-04-26 09:48 -52.84701 -70.92110 3693 ft 242 kts 152°
2026-04-26 09:48 -52.85958 -70.90302 3510 ft 233 kts 140°
2026-04-26 09:48 -52.87114 -70.88521 3505 ft 223 kts 142°
2026-04-26 09:48 -52.88255 -70.86821 3500 ft 219 kts 142°
2026-04-26 09:49 -52.89356 -70.85142 3494 ft 217 kts 141°
2026-04-26 09:49 -52.90463 -70.83448 3493 ft 216 kts 141°
2026-04-26 09:49 -52.91567 -70.81760 3493 ft 216 kts 141°
2026-04-26 09:49 -52.92670 -70.80076 3492 ft 215 kts 141°
2026-04-26 09:50 -52.93771 -70.78393 3501 ft 215 kts 142°
2026-04-26 09:50 -52.94870 -70.76709 3502 ft 216 kts 141°
2026-04-26 09:50 -52.95974 -70.75016 3503 ft 216 kts 142°
2026-04-26 09:50 -52.97065 -70.73356 3501 ft 210 kts 142°
2026-04-26 09:51 -52.98130 -70.71716 3495 ft 208 kts 141°
2026-04-26 09:51 -52.99170 -70.70114 3492 ft 206 kts 142°
2026-04-26 09:51 -53.00218 -70.68503 3494 ft 205 kts 142°
2026-04-26 09:51 -53.01261 -70.66901 3494 ft 204 kts 142°
2026-04-26 09:52 -53.02300 -70.65305 3496 ft 203 kts 142°
2026-04-26 09:52 -53.04373 -70.62113 3497 ft 203 kts 142°
2026-04-26 09:52 -53.05408 -70.60516 3500 ft 203 kts 142°
2026-04-26 09:53 -53.06445 -70.58928 3499 ft 202 kts 143°
2026-04-26 09:53 -53.07655 -70.57942 3500 ft 192 kts 174°
2026-04-26 09:53 -53.08936 -70.58019 3501 ft 185 kts 199°
2026-04-26 09:53 -53.10039 -70.59025 3501 ft 180 kts 223°
2026-04-26 09:54 -53.10870 -70.60576 3509 ft 179 kts 230°
2026-04-26 09:54 -53.11697 -70.62129 3511 ft 179 kts 230°
2026-04-26 09:54 -53.12521 -70.63684 3511 ft 179 kts 231°
2026-04-26 09:54 -53.13019 -70.65534 3499 ft 179 kts 262°
2026-04-26 09:55 -53.12826 -70.67490 3306 ft 170 kts 291°
2026-04-26 09:55 -53.12084 -70.68977 3036 ft 165 kts 314°
2026-04-26 09:55 -53.11245 -70.70159 2785 ft 156 kts 313°
2026-04-26 09:55 -53.10442 -70.71340 2528 ft 153 kts 313°
2026-04-26 09:56 -53.09648 -70.72500 2260 ft 151 kts 314°
2026-04-26 09:56 -53.08863 -70.73644 1996 ft 149 kts 314°
2026-04-26 09:56 -53.08087 -70.74775 1727 ft 148 kts 314°
2026-04-26 09:56 -53.07317 -70.75896 1460 ft 147 kts 315°
2026-04-26 09:57 -53.06572 -70.76981 1405 ft 137 kts 314°
2026-04-26 09:57 -53.05870 -70.78013 1325 ft 136 kts 314°
2026-04-26 09:57 -53.05166 -70.79034 1097 ft 130 kts 315°
2026-04-26 09:57 -53.04505 -70.80000 856 ft 127 kts 315°
2026-04-26 09:58 -53.03843 -70.80965 661 ft 126 kts 317°
2026-04-26 09:58 -53.03191 -70.81917 577 ft 123 kts 316°
2026-04-26 09:58 -53.02575 -70.82805 458 ft 113 kts 319°
2026-04-26 09:58 -53.02057 -70.83554 319 ft 90 kts 317°
2026-04-26 09:59 -53.01605 -70.84205 242 ft 85 kts 316°
2026-04-26 09:59 -53.01159 -70.84829 146 ft 82 kts 319°
2026-04-26 09:59 -53.00784 -70.85381 104 ft 50 kts 316°
2026-04-26 09:59 -53.00672 -70.85539 105 ft 12 kts
2026-04-26 10:00 -53.00708 -70.85481 106 ft 11 kts 139°
2026-04-26 10:00 -53.00655 -70.85375 107 ft 17 kts 31°
2026-04-26 10:00 -53.00530 -70.85257 108 ft 24 kts 30°
2026-04-26 10:00 -53.00376 -70.85105 109 ft 19 kts 46°
2026-04-26 10:01 -53.00373 -70.84937 110 ft 15 kts 115°
2026-04-26 10:01 -53.00397 -70.84783 110 ft 11 kts 85°
2026-04-26 10:01 -53.00438 -70.84783 110 ft 9 kts 215°
2026-04-26 10:01 -53.00511 -70.84778 109 ft 14 kts 138°
2026-04-26 10:02 -53.00520 -70.84734 109 ft 0 kts 97°